Hourly Data Report for March 12, 2017

PORT ALBERNI (AUT)
BRITISH COLUMBIA

49°18'59.700" N
124°55'36.600" W
76.20 m
1036B06
71475
WQC

Download Data

Hourly Data (March 2017)
Hourly Data Report for March 12, 2017
TIME
LST
Temp Definition
°C
Dew Point Definition
°C
Rel Hum Definition
%
Precip. Amount Definition
mm

Wind Dir Definition
10's deg

Wind Spd Definition
km/h
Visibility Definition
km
Stn Press Definition
kPa
Hmdx Definition


Wind Chill Definition


Weather Definition


00:00 1.9 1.6 98 0.1 29 2   101.03     LegendNANA
01:00 1.6 1.4 98 0.0 31 3   101.08     LegendNANA
02:00 0.8 0.5 98 0.0 31 2   101.17     LegendNANA
03:00 1.4 1.1 98 0.1 31 2   101.20     LegendNANA
04:00 0.8 0.6 98 0.2 0 1   101.23     LegendNANA
05:00 1.2 1.0 98 0.0 31 2   101.28     LegendNANA
06:00 1.6 1.4 99 0.0 0 1   101.32     LegendNANA
07:00 1.3 1.1 99 0.0 31 2   101.31     LegendNANA
08:00 2.6 2.4 99 0.0 29 2   101.33     LegendNANA
09:00 3.8 3.6 99 0.0   0   101.34     LegendNANA
10:00 5.0 4.4 96 0.0 31 2   101.36     LegendNANA
11:00 6.4 5.6 95 0.1 28 4   101.37     LegendNANA
12:00 7.8 6.9 94 0.2 14 5   101.37     LegendNANA
13:00 7.9 7.1 95 0.5 19 6   101.33     LegendNANA
14:00 8.8 8.1 95 1.1 10 11   101.26     LegendNANA
15:00 8.5 7.6 94 1.1 9 7   101.27     LegendNANA
16:00 8.5 7.6 94 1.3 10 12   101.18     LegendNANA
17:00 8.5 7.7 95 1.6 10 7   101.13     LegendNANA
18:00 7.8 7.3 97 1.6 12 4   101.12     LegendNANA
19:00 6.3 6.0 97 1.2 24 2   101.13     LegendNANA
20:00 7.3 7.0 98 1.4 10 7   101.11     LegendNANA
21:00 5.9 5.5 98 1.4 32 3   101.08     LegendNANA
22:00 5.3 5.0 98 1.2 15 4   101.03     LegendNANA
23:00 5.4 5.1 98 0.9 31 9   101.02     LegendNANA

Notes on Data Quality.

Legend

  • E = Estimated
  • M = Missing
  • NA = Not Available*
  • [empty] = Indicates an unobserved value
Date modified: